PERSEUS-M2

Last updated on Sat Aug 15 2026 00:03:44 GMT+0000 (Coordinated Universal Time)

1 40037U 14033AD 26226.60461705 .00000490 00000+0 49531-4 0 9990 2 40037 97.9992 178.3519 0013032 103.7499 256.5173 14.95652401659519
UTC large
Height (km)
Speed (km/s)
/
Latitude / Longitude
Inclination (degrees)
Orbital Period (minutes)
Azimuth
Elevation
Range (km)
Doppler Factor

Next 0 passes for location: London (51.5072 / 0.1276)

No passes found over London.
PERSEUS-M2